EB3EFU-2 Weather Reports


time (UTC)temp
F
wind
direction
speed
knots
gust
knots
rain 1hr
in
rain 24hr
in
rain mn
in
humidity
%
barometer
mb
20260507191802 60 148 1.7 5.2 0.00 0.00 0.00 78 1012.8
20260507190902 60 138 1.7 5.2 0.00 0.00 0.00 77 1012.4
20260507190003 60 131 1.7 2.6 0.00 0.00 0.00 76 1012.5
20260507185402 61 172 0.9 1.7 0.00 0.00 0.00 75 1012.6
20260507184502 61 111 0.9 3.5 0.00 0.00 0.00 75 1012.6
20260507183602 61 112 0.9 3.5 0.00 0.01 0.00 74 1012.5
20260507182702 61 67 1.7 6.1 0.00 0.01 0.00 74 1012.4
20260507181802 62 113 1.7 3.5 0.00 0.01 0.00 73 1012.2
20260507180902 62 102 2.6 4.3 0.00 0.01 0.00 71 1012.3
20260507180002 62 62 2.6 5.2 0.00 0.01 0.00 71 1012.2
20260507175402 62 85 2.6 6.1 0.00 0.01 0.00 70 1012.2
20260507174523 62 101 2.6 6.1 0.00 0.01 0.00 70 1012.4
20260507173623 63 120 3.5 7.0 0.00 0.09 0.00 69 1012.3
20260507172702 63 105 4.3 6.1 0.00 0.09 0.00 67 1012.4
20260507171802 63 92 2.6 7.8 0.00 0.09 0.00 65 1012.3
20260507170902 64 132 2.6 7.0 0.00 0.09 0.00 63 1012.3
20260507170002 64 114 3.5 7.0 0.00 0.09 0.00 64 1012.3
20260507165402 64 102 2.6 6.1 0.00 0.09 0.00 63 1012.3
20260507164502 64 103 3.5 7.0 0.00 0.09 0.00 64 1012.5
20260507163602 64 79 3.5 7.0 0.00 0.09 0.00 65 1012.5
20260507162702 64 84 3.5 9.6 0.00 0.15 0.00 63 1012.6
20260507161802 64 68 4.3 9.6 0.00 0.22 0.00 63 1012.7
20260507160903 64 93 4.3 8.7 0.00 0.26 0.00 60 1012.7
20260507160003 64 59 6.1 11.3 0.00 0.27 0.00 62 1012.4
20260507155403 64 63 6.1 11.3 0.00 0.27 0.00 61 1012.7
20260507154524 64 48 5.2 13.0 0.00 0.27 0.00 61 1012.5
20260507153602 64 47 6.1 11.3 0.00 0.27 0.00 59 1012.4
20260507152723 64 51 6.1 11.3 0.00 0.27 0.00 59 1012.3
20260507151824 65 75 5.2 10.4 0.00 0.27 0.00 57 1012.5
20260507150902 64 88 4.3 10.4 0.00 0.27 0.00 52 1012.6
20260507150003 64 57 5.2 12.2 0.00 0.27 0.00 60 1012.5
20260507145403 64 60 5.2 12.2 0.00 0.27 0.00 59 1012.6
20260507144503 64 76 5.2 9.6 0.00 0.27 0.00 58 1012.5
20260507143603 65 94 4.3 9.6 0.00 0.27 0.00 55 1012.6
20260507142724 65 80 4.3 8.7 0.00 0.27 0.00 59 1012.9
20260507141824 64 76 5.2 10.4 0.00 0.27 0.00 57 1012.8
20260507140903 64 95 4.3 10.4 0.00 0.27 0.00 58 1012.9
20260507140003 64 99 4.3 13.0 0.00 0.27 0.00 58 1013.2
20260507135403 64 74 4.3 11.3 0.00 0.27 0.00 57 1013.3
20260507134524 65 100 4.3 11.3 0.00 0.27 0.00 56 1013.2
20260507133603 65 109 6.1 11.3 0.00 0.27 0.00 55 1013.3
20260507132703 64 90 6.1 9.6 0.00 0.27 0.00 53 1013.4
20260507131824 65 97 4.3 11.3 0.00 0.27 0.00 57 1013.5
20260507130903 65 118 4.3 10.4 0.00 0.27 0.00 58 1013.5
20260507130003 64 84 5.2 13.0 0.00 0.27 0.00 57 1013.7
20260507125424 64 78 6.1 13.0 0.00 0.27 0.00 58 1013.6
20260507124503 65 82 6.1 13.0 0.00 0.27 0.00 57 1013.5
20260507123603 65 83 4.3 10.4 0.00 0.27 0.00 58 1013.7
20260507122724 64 67 5.2 13.0 0.00 0.27 0.00 58 1013.6
20260507121824 63 54 7.0 13.9 0.00 0.27 0.00 61 1013.6
20260507120924 63 58 6.1 13.0 0.00 0.27 0.00 61 1013.4
20260507120003 63 65 7.0 13.0 0.00 0.27 0.00 62 1013.5
20260507115403 63 59 7.0 13.0 0.00 0.27 0.00 61 1013.5
20260507114503 64 76 6.1 13.9 0.00 0.27 0.00 60 1013.8
20260507113624 63 71 7.0 13.9 0.00 0.27 0.00 63 1013.8
20260507112724 63 62 7.0 13.9 0.00 0.27 0.00 61 1014.0
20260507111824 63 48 7.8 13.0 0.00 0.27 0.00 61 1014.1
20260507110903 63 54 5.2 12.2 0.00 0.27 0.00 59 1013.9
20260507110003 62 58 6.1 11.3 0.00 0.27 0.00 61 1014.1
20260507105403 62 71 7.0 12.2 0.00 0.27 0.00 61 1014.2
20260507104503 62 71 7.0 12.2 0.00 0.27 0.00 62 1013.9
20260507103603 63 76 4.3 9.6 0.00 0.27 0.00 62 1014.1
20260507102703 63 59 7.0 9.6 0.00 0.27 0.00 63 1014.1
20260507101824 63 74 5.2 11.3 0.00 0.27 0.00 63 1014.3
20260507100903 63 49 5.2 10.4 0.00 0.27 0.00 64 1014.5
20260507100003 62 50 5.2 9.6 0.00 0.27 0.00 64 1014.3
20260507095403 63 47 5.2 9.6 0.00 0.27 0.00 62 1014.3
20260507094524 62 49 4.3 9.6 0.00 0.27 0.00 62 1014.6
20260507093603 63 39 3.5 7.8 0.00 0.27 0.00 63 1014.2
20260507092703 62 35 3.5 7.8 0.00 0.27 0.00 60 1014.2
20260507091803 61 44 3.5 6.1 0.00 0.27 0.00 64 1014.3
20260507090903 61 43 3.5 6.1 0.00 0.27 0.00 64 1014.1
20260507090004 62 9 3.5 5.2 0.00 0.27 0.00 63 1014.1
20260507085403 61 21 2.6 5.2 0.00 0.27 0.00 63 1014.0
20260507084506 61 36 3.5 5.2 0.00 0.27 0.00 67 1014.1
20260507083603 60 3 3.5 5.2 0.00 0.27 0.00 70 1014.0
20260507082701 61 355 2.6 5.2 0.00 0.27 0.00 71 1014.3
20260507081822 61 42 1.7 4.3 0.00 0.27 0.00 69 1014.3
20260507080901 61 30 1.7 4.3 0.00 0.27 0.00 72 1014.5
20260507080001 59 259 0.9 3.5 0.00 0.27 0.00 76 1014.5
20260507075401 59 291 0.9 3.5 0.00 0.27 0.00 75 1014.5
20260507074501 58 313 1.7 6.1 0.00 0.27 0.00 80 1014.7
20260507073601 58 135 1.7 4.3 0.00 0.27 0.00 82 1014.4
20260507072701 58 245 1.7 4.3 0.00 0.27 0.00 84 1014.4
20260507071801 57 218 1.7 4.3 0.00 0.27 0.00 84 1014.3
20260507070901 56 325 1.7 4.3 0.00 0.27 0.00 86 1014.3
20260507070001 56 345 0.9 3.5 0.00 0.27 0.00 87 1014.2
20260507065401 55 67 0.9 3.5 0.00 0.27 0.00 90 1014.4
20260507064522 55 134 1.7 3.5 0.00 0.27 0.00 91 1014.2
20260507063601 54 170 1.7 3.5 0.00 0.27 0.00 91 1014.2
20260507062701 53 118 1.7 4.3 0.00 0.27 0.00 92 1014.3
20260507061801 53 161 1.7 3.5 0.00 0.27 0.00 93 1014.1
20260507060901 53 142 1.7 3.5 0.00 0.27 0.00 93 1013.9
20260507060001 53 136 0.9 3.5 0.00 0.27 0.00 94 1014.0
20260507055401 52 146 1.7 3.5 0.00 0.27 0.00 94 1013.9
20260507054501 52 128 0.9 3.5 0.00 0.27 0.00 96 1014.1
20260507053601 51 180 0.9 2.6 0.00 0.27 0.00 96 1014.0
20260507052701 51 172 0.9 2.6 0.00 0.27 0.00 96 1013.8
20260507051801 50 112 1.7 2.6 0.00 0.27 0.00 96 1013.8
20260507050922 50 141 1.7 3.5 0.00 0.27 0.00 96 1013.7
20260507050001 49 99 1.7 3.5 0.00 0.27 0.00 96 1013.7
20260507045401 49 98 0.9 2.6 0.00 0.27 0.00 96 1013.5
20260507044501 49 74 0.9 2.6 0.00 0.27 0.00 96 1013.5
20260507043601 49 119 0.9 2.6 0.00 0.27 0.00 96 1013.5
20260507042701 49 170 0.9 2.6 0.00 0.27 0.00 96 1013.5
20260507041801 50 117 0.9 2.6 0.00 0.27 0.00 96 1013.6
20260507040922 50 92 0.9 2.6 0.00 0.27 0.00 96 1013.7
20260507040002 50 66 0.9 2.6 0.00 0.27 0.00 96 1013.5
20260507035422 50 141 1.7 4.3 0.00 0.27 0.00 96 1013.7
20260507034501 50 150 1.7 4.3 0.00 0.27 0.00 96 1013.5
20260507033601 50 116 1.7 3.5 0.00 0.27 0.00 96 1013.3
20260507032702 50 86 1.7 3.5 0.00 0.27 0.00 96 1013.3
20260507031801 50 150 0.9 3.5 0.00 0.27 0.00 95 1013.4
20260507030901 50 139 0.9 3.5 0.00 0.27 0.00 95 1013.5
20260507030023 51 116 0.9 3.5 0.00 0.27 0.00 95 1013.4
20260507025403 51 103 1.7 3.5 0.00 0.27 0.00 96 1013.4
20260507024502 51 143 1.7 3.5 0.00 0.27 0.00 96 1013.5
20260507023602 51 126 1.7 4.3 0.00 0.27 0.00 96 1013.5
20260507022701 51 65 1.7 4.3 0.00 0.27 0.00 95 1013.4
20260507021802 51 108 1.7 5.2 0.00 0.27 0.00 95 1013.6
20260507020923 51 131 1.7 5.2 0.00 0.27 0.00 95 1013.5
20260507020002 51 137 1.7 5.2 0.00 0.27 0.00 95 1013.4
20260507015402 52 86 2.6 6.1 0.00 0.27 0.00 95 1013.5
20260507014502 52 91 1.7 6.1 0.00 0.27 0.00 95 1013.5
20260507013602 52 136 0.9 4.3 0.00 0.27 0.00 95 1013.6
20260507012702 52 143 1.7 4.3 0.00 0.27 0.00 95 1013.8
20260507011802 52 93 1.7 4.3 0.00 0.27 0.00 95 1013.9
20260507010902 52 150 1.7 4.3 0.00 0.27 0.00 95 1013.8
20260507010002 52 120 1.7 4.3 0.00 0.27 0.00 95 1013.9
20260507005423 52 77 2.6 5.2 0.00 0.27 0.00 95 1014.2
20260507004502 53 20 2.6 6.1 0.00 0.27 0.00 95 1014.1
20260507003602 52 169 0.9 3.5 0.00 0.27 0.00 95 1014.2
20260507002723 52 84 1.7 4.3 0.00 0.27 0.00 94 1014.3
20260507001802 53 136 1.7 4.3 0.00 0.27 0.00 95 1014.1
20260507000902 53 125 0.9 4.3 0.00 0.27 0.00 95 1014.2
20260507000023 53 141 1.7 4.3 0.00 0.27 0.00 94 1014.4
20260506235402 53 130 1.7 5.2 0.00 0.27 0.00 94 1014.3
20260506234502 53 141 1.7 7.0 0.00 0.27 0.00 94 1014.3
20260506233602 53 86 1.7 5.2 0.00 0.27 0.00 94 1014.2
20260506232702 53 113 0.9 3.5 0.00 0.27 0.00 94 1014.6
20260506231802 53 71 0.9 2.6 0.00 0.27 0.00 94 1014.2
20260506230923 53 78 0.9 2.6 0.00 0.27 0.00 94 1014.2
20260506230002 54 144 0.9 2.6 0.00 0.27 0.00 93 1014.5
20260506225402 54 228 0.0 2.6 0.00 0.27 0.00 94 1014.3
20260506224502 54 99 0.0 1.7 0.00 0.27 0.00 94 1014.4
20260506223602 54 95 0.9 2.6 0.00 0.27 0.00 94 1014.3
20260506222702 54 98 0.9 2.6 0.00 0.27 0.00 93 1014.3
20260506221802 54 116 1.7 3.5 0.00 0.27 0.00 93 1014.3
20260506220902 54 148 2.6 4.3 0.00 0.27 0.00 93 1014.1
20260506220002 54 141 1.7 3.5 0.00 0.27 0.00 93 1014.3
20260506215402 54 156 1.7 3.5 0.00 0.27 0.27 93 1014.4
20260506214502 55 213 0.0 2.6 0.00 0.27 0.27 93 1014.6
20260506213602 55 127 0.9 2.6 0.00 0.27 0.27 92 1014.5
20260506212702 55 122 1.7 2.6 0.00 0.27 0.27 92 1014.4
20260506211802 55 134 1.7 3.5 0.00 0.27 0.27 91 1014.4
20260506210902 55 125 1.7 2.6 0.00 0.27 0.27 91 1014.4
20260506210002 55 191 0.9 3.5 0.00 0.27 0.27 91 1014.4
20260506205402 55 295 0.9 4.3 0.00 0.27 0.27 90 1014.4
20260506204523 56 347 1.7 4.3 0.00 0.27 0.27 90 1014.3
20260506203602 56 353 1.7 6.1 0.00 0.27 0.27 90 1014.2
20260506202702 56 345 3.5 7.8 0.00 0.27 0.27 89 1014.3
20260506201802 56 343 4.3 10.4 0.00 0.27 0.27 90 1014.1
20260506200902 57 346 2.6 7.8 0.00 0.27 0.27 91 1014.0
20260506200002 57 1 3.5 7.8 0.00 0.27 0.27 91 1014.2
20260506195402 57 11 2.6 6.1 0.00 0.27 0.27 91 1013.8
20260506194502 57 15 2.6 5.2 0.00 0.27 0.27 91 1013.7
20260506193602 57 9 2.6 5.2 0.01 0.27 0.27 91 1013.7
20260506192702 57 355 1.7 5.2 0.01 0.27 0.27 92 1013.4